Volver al catálogo

HAIYANG 2C

ActivoCienciaLEO
NORAD 46469·PAYLOAD·🇨🇳 China

Lanzado Sep 21, 2020 desde Jiuquan Satellite Launch Center

Loading…

Próximos Pases (próximas 24 horas)

TLE

ActualizadoSource: CelesTrak SupGP

Época: Sep 14, 2026, 00:00 UTC

1 46469C 20066A   26257.00000000 -.00000079  00000+0 -71303-4 0  2577
2 46469  66.0001 354.1584 0004995 249.2917  30.7344 13.83374311    11

Sigue HAIYANG 2C en tiempo real con AllMySat

Download on the App Store